Погода в Каракашлах

Россия / Республика Татарстан     54°40′41″N   53°14′06″E
темп.,
°C
ветер,
м/с
пор.,
м/с
влажн.,
%
обл.,
%
осадки,
мм/ч
давл.,
гПа
погр.,
м
13 мая, чт
чт1300:00+15ю114615 0.0 102711
03:00+14юв11500 0.0 102710
06:00+17юв235113 0.0 1027119
09:00+22ююв46405 0.0 1027806
12:00+25ююв57305 0.0 10261779
15:00+25ююв56293 0.0 10251723
18:00+22ююв34485 0.0 102568
21:00+18ююв33493 0.0 102522
14 мая, пт
пт1400:00+16ююв33534 0.0 102527
03:00+15ююв225837 0.0 102519
06:00+18ююв395712 0.0 1025256
09:00+24ю69405 0.0 1025634
12:00+27ююз68305 0.0 10241171
15:00+27ююз57315 0.0 10241545
18:00+23ю355051 0.0 102384
21:00+19ююз3352100 0.0 102436
15 мая, сб
сб1500:00+17ююз33575 0.1 102324
03:00+16ю33575 0.1 102420
06:00+18ю2758100 0.0 1024182
09:00+25ююз57385 0.0 1024696
12:00+28ююз67285 0.0 10231478
15:00+28юз562737 0.0 10221843
18:00+24ююз33475 0.0 102130
21:00+20ююз22514 0.0 102115
16 мая, вс
вс1600:00+18ююз33522 0.0 102121
03:00+17ююз33525 0.0 102219
06:00+20ю25535 0.0 1022126
09:00+26ююз56390 0.0 1021624
12:00+28юз67290 0.0 10202761
15:00+28юз57305 0.0 10193133
18:00+25ю22432 0.0 101815
21:00+21ююз33415 0.0 101833
17 мая, пн
пн1700:00+20ююз374582 0.0 1019135
03:00+20зюз45499 0.1 101983
06:00+21юз2658100 0.0 1019170
09:00+25юз4544100 0.0 1019624
12:00+29зюз44315 0.0 10182122
15:00+29з442951 0.0 10182885
18:00+25зюз234952 0.0 101834
21:00+18юз336263 0.1 101941